Weather History for KUNU - January, 2013

Change the Weather History Date:

Wednesday, January 16, 2013

  Actual Average Record
Temperature  
Mean Temperature 24 °F -  
Max Temperature 32 °F 23 °F 47 °F (1990)
Min Temperature 17 °F 10 °F -24 °F (2009)
Degree Days  
Heating Degree Days 40    
Moisture  
Dew Point 17 °F    
Average Humidity 70    
Maximum Humidity 87    
Minimum Humidity 55    
Precipitation  
Precipitation 0.00 in - - ()
Sea Level Pressure  
Sea Level Pressure 29.88 in    
Wind  
Wind Speed 13 mph (SW)    
Max Wind Speed 22 mph    
Max Gust Speed 28 mph    
Visibility 10 miles    
Events Snow    
Averages and records for this station are not official NWS values.
T = Trace of Precipitation, MM = Missing Value Source: NWS Daily Summary

Daily Weather History Graph

Daily Weather History Graph

Search for Another Location

Airport or City:

Trip Planner

Search our weather history database for the weather conditions in past years. The results will help you decide how hot, cold, wet, or windy it might be!

Date:

Astronomy

Jan. 16, 2013 Rise Set
Actual Time 7:23 AM CST 4:45 PM CST
Civil Twilight 6:52 AM CST 5:17 PM CST
Nautical Twilight 6:17 AM CST 5:52 PM CST
Astronomical Twilight 5:42 AM CST 6:26 PM CST
Moon 9:49 AM CST (1/16) 10:49 PM CST (1/16)
Length of Visible Light 10h 25m
Length of Day
9h 22m
Waxing Crescent, 28% of the Moon is Illuminated
Jan 16
Waxing Crescent
Jan 18
First Quarter
Jan 26
Full
Feb 3
Last Quarter
Feb 10
New

Hourly Weather History & Observations

Time (CST) Temp. Windchill Dew Point Humidity Pressure Visibility Wind Dir Wind Speed Gust Speed Precip Events Conditions
12:15 AM 17.6 °F 4.3 °F 10.4 °F 73% 30.04 in 10.0 mi South 12.7 mph - N/A   Clear
12:35 AM 19.4 °F 7.2 °F 10.4 °F 68% 30.03 in 10.0 mi South 11.5 mph - N/A   Clear
12:55 AM 17.6 °F 5.0 °F 10.4 °F 73% 30.02 in 10.0 mi South 11.5 mph - N/A   Clear
1:15 AM 17.6 °F 5.0 °F 10.4 °F 73% 30.02 in 10.0 mi SSW 11.5 mph - N/A   Clear
1:35 AM 17.6 °F 3.7 °F 10.4 °F 73% 30.00 in 10.0 mi SSW 13.8 mph - N/A   Clear
1:55 AM 17.6 °F 3.7 °F 10.4 °F 73% 30.00 in 10.0 mi SSW 13.8 mph - N/A   Clear
2:15 AM 17.6 °F 4.3 °F 10.4 °F 73% 29.99 in 10.0 mi SSW 12.7 mph - N/A   Clear
2:35 AM 17.6 °F 5.0 °F 10.4 °F 73% 29.98 in 10.0 mi SSW 11.5 mph - N/A   Clear
2:55 AM 17.6 °F 4.3 °F 8.6 °F 68% 29.97 in 10.0 mi South 12.7 mph - N/A   Clear
3:15 AM 17.6 °F 4.3 °F 8.6 °F 68% 29.96 in 10.0 mi South 12.7 mph - N/A   Clear
3:35 AM 17.6 °F 4.3 °F 8.6 °F 68% 29.95 in 10.0 mi South 12.7 mph - N/A   Clear
3:55 AM 17.6 °F 3.7 °F 8.6 °F 68% 29.93 in 10.0 mi South 13.8 mph - N/A   Clear
4:15 AM 17.6 °F 3.2 °F 8.6 °F 68% 29.92 in 10.0 mi South 15.0 mph - N/A   Clear
4:35 AM 17.6 °F 3.7 °F 8.6 °F 68% 29.91 in 10.0 mi South 13.8 mph - N/A   Clear
4:55 AM 17.6 °F 3.7 °F 8.6 °F 68% 29.90 in 10.0 mi South 13.8 mph - N/A   Clear
5:15 AM 17.6 °F 4.3 °F 8.6 °F 68% 29.90 in 10.0 mi SSW 12.7 mph - N/A   Clear
5:35 AM 17.6 °F 4.3 °F 8.6 °F 68% 29.88 in 10.0 mi South 12.7 mph - N/A   Clear
5:55 AM 17.6 °F 3.7 °F 8.6 °F 68% 29.86 in 10.0 mi South 13.8 mph - N/A   Clear
6:35 AM 19.4 °F 5.0 °F 8.6 °F 63% 29.84 in 10.0 mi South 16.1 mph 23.0 mph N/A   Clear
6:55 AM 19.4 °F 4.5 °F 8.6 °F 63% 29.85 in 10.0 mi SSW 17.3 mph 21.9 mph N/A   Clear
7:15 AM 19.4 °F 4.5 °F 8.6 °F 63% 29.84 in 10.0 mi South 17.3 mph - N/A   Clear
7:35 AM 21.2 °F 5.6 °F 8.6 °F 58% 29.84 in 10.0 mi SSW 20.7 mph 26.5 mph N/A   Mostly Cloudy
7:55 AM 21.2 °F 5.6 °F 10.4 °F 63% 29.82 in 10.0 mi SSW 20.7 mph 25.3 mph N/A   Overcast
8:15 AM 21.2 °F 6.4 °F 10.4 °F 63% 29.82 in 10.0 mi SSW 18.4 mph 24.2 mph N/A   Mostly Cloudy
8:35 AM 21.2 °F 6.0 °F 10.4 °F 63% 29.82 in 10.0 mi SSW 19.6 mph 23.0 mph N/A   Scattered Clouds
8:55 AM 23.0 °F 8.7 °F 12.2 °F 63% 29.81 in 10.0 mi SSW 18.4 mph - N/A   Overcast
9:15 AM 23.0 °F 9.2 °F 12.2 °F 63% 29.80 in 10.0 mi SSW 17.3 mph - N/A   Overcast
9:35 AM 24.8 °F 11.5 °F 12.2 °F 59% 29.78 in 10.0 mi SSW 17.3 mph 24.2 mph N/A   Overcast
9:55 AM 26.6 °F 13.1 °F 14.0 °F 59% 29.77 in 10.0 mi SSW 19.6 mph - N/A   Overcast
10:15 AM 26.6 °F 13.1 °F 14.0 °F 59% 29.76 in 10.0 mi SSW 19.6 mph 25.3 mph N/A   Overcast
10:35 AM 26.6 °F 13.8 °F 14.0 °F 59% 29.77 in 10.0 mi SSW 17.3 mph 23.0 mph N/A   Overcast
10:55 AM 28.4 °F 15.8 °F 14.0 °F 55% 29.76 in 10.0 mi SW 18.4 mph - N/A   Overcast
11:15 AM 28.4 °F 15.1 °F 15.8 °F 59% 29.75 in 10.0 mi SW 20.7 mph 24.2 mph N/A   Overcast
11:35 AM 30.2 °F 17.4 °F 17.6 °F 60% 29.75 in 10.0 mi SW 20.7 mph 26.5 mph N/A   Overcast
11:55 AM 30.2 °F 17.1 °F 17.6 °F 60% 29.74 in 10.0 mi WSW 21.9 mph 27.6 mph N/A   Overcast
12:15 PM 30.2 °F 18.1 °F 19.4 °F 64% 29.74 in 10.0 mi SW 18.4 mph 25.3 mph N/A   Overcast
12:35 PM 30.2 °F 17.4 °F 21.2 °F 69% 29.74 in 7.0 mi WSW 20.7 mph 27.6 mph N/A Snow Light Snow
12:55 PM 30.2 °F 18.5 °F 23.0 °F 75% 29.75 in 10.0 mi WSW 17.3 mph 24.2 mph N/A   Overcast
1:15 PM 30.2 °F 17.4 °F 23.0 °F 75% 29.75 in 10.0 mi WSW 20.7 mph - N/A   Overcast
1:35 PM 30.2 °F 17.4 °F 23.0 °F 75% 29.75 in 10.0 mi WSW 20.7 mph 25.3 mph N/A   Overcast
2:15 PM 30.2 °F 19.3 °F 23.0 °F 75% 29.77 in 10.0 mi WSW 15.0 mph - N/A   Overcast
2:35 PM 32.0 °F 21.2 °F 23.0 °F 69% 29.77 in 10.0 mi WSW 16.1 mph - N/A   Overcast
2:55 PM 32.0 °F 21.6 °F 23.0 °F 69% 29.77 in 10.0 mi WSW 15.0 mph - N/A   Overcast
3:15 PM 32.0 °F 21.6 °F 23.0 °F 69% 29.78 in 10.0 mi WSW 15.0 mph - N/A   Overcast
3:35 PM 32.0 °F 23.0 °F 23.0 °F 69% 29.79 in 10.0 mi WSW 11.5 mph - N/A   Overcast
3:55 PM 32.0 °F 22.1 °F 24.8 °F 75% 29.81 in 10.0 mi WSW 13.8 mph - N/A   Overcast
4:15 PM 32.0 °F 23.6 °F 24.8 °F 75% 29.83 in 10.0 mi WSW 10.4 mph - N/A   Overcast
4:35 PM 32.0 °F 24.2 °F 24.8 °F 75% 29.84 in 10.0 mi WSW 9.2 mph - N/A   Overcast
4:55 PM 32.0 °F 24.8 °F 26.6 °F 80% 29.85 in 10.0 mi WSW 8.1 mph - N/A   Overcast
5:15 PM 32.0 °F 25.6 °F 26.6 °F 80% 29.86 in 10.0 mi WSW 6.9 mph - N/A   Overcast
5:55 PM 32.0 °F 24.8 °F 26.6 °F 80% 29.88 in 10.0 mi WSW 8.1 mph - N/A   Overcast
6:15 PM 32.0 °F 24.8 °F 26.6 °F 80% 29.89 in 10.0 mi WSW 8.1 mph - N/A   Overcast
6:35 PM 32.0 °F 25.6 °F 26.6 °F 80% 29.90 in 10.0 mi WSW 6.9 mph - N/A   Overcast
6:55 PM 30.2 °F 23.4 °F 26.6 °F 86% 29.91 in 10.0 mi WSW 6.9 mph - N/A   Overcast
7:15 PM 30.2 °F 24.3 °F 26.6 °F 86% 29.92 in 10.0 mi WSW 5.8 mph - N/A   Mostly Cloudy
7:35 PM 30.2 °F 25.4 °F 26.6 °F 86% 29.93 in 10.0 mi WSW 4.6 mph - N/A   Scattered Clouds
7:55 PM 30.2 °F - 26.6 °F 86% 29.94 in 10.0 mi Calm Calm - N/A   Mostly Cloudy
8:15 PM 30.2 °F 26.7 °F 26.6 °F 86% 29.95 in 10.0 mi West 3.5 mph - N/A   Mostly Cloudy
8:35 PM 30.2 °F 25.4 °F 26.6 °F 86% 29.95 in 10.0 mi WNW 4.6 mph - N/A   Scattered Clouds
8:55 PM 30.2 °F 25.4 °F 26.6 °F 86% 29.97 in 10.0 mi WNW 4.6 mph - N/A   Mostly Cloudy
9:15 PM 32.0 °F 26.4 °F 28.4 °F 87% 29.97 in 10.0 mi WNW 5.8 mph - N/A   Overcast
9:35 PM 32.0 °F 25.6 °F 26.6 °F 80% 29.99 in 10.0 mi West 6.9 mph - N/A   Overcast
9:55 PM 32.0 °F 22.5 °F 26.6 °F 80% 30.01 in 10.0 mi WNW 12.7 mph 18.4 mph N/A   Overcast
10:15 PM 30.2 °F 20.8 °F 21.2 °F 69% 30.02 in 10.0 mi WNW 11.5 mph - N/A   Scattered Clouds
10:35 PM 28.4 °F 19.7 °F 14.0 °F 55% 30.02 in 10.0 mi NW 9.2 mph 18.4 mph N/A   Clear
10:55 PM 28.4 °F 20.4 °F 14.0 °F 55% 30.04 in 10.0 mi NW 8.1 mph - N/A   Clear
11:15 PM 28.4 °F 21.2 °F 14.0 °F 55% 30.04 in 10.0 mi NW 6.9 mph - N/A   Clear
11:35 PM 26.6 °F 20.0 °F 14.0 °F 59% 30.05 in 10.0 mi WNW 5.8 mph - N/A   Clear
11:55 PM 26.6 °F 18.2 °F 12.2 °F 55% 30.05 in 10.0 mi WNW 8.1 mph - N/A   Clear